[TLELIST] Archives

 

[list_settings.list_name] Current TLEs

February 7th 2014 PDT

HST 1 20580U 90037B 14037.62645205 .00004899 00000-0 32836-3 0 4326 2 20580 028.4696 174.9587 0003147 339.5337 090.3434 15.04617097105022 ISS (ZARYA) 1 25544U 98067A 14038.24161196 .00011265 00000-0 20439-3 0 6337 2 25544 051.6493 023.7392 0004227 111.9810 022.9535 15.50093301871168 CXO 1 25867U 99040B 14040.95242759 .00000254 00000-0 00000+0 0 9879 2 25867 076.5550 326.5324 8284612 275.5761 000.6253 00.37799577 11436 ____________________________________________________________________ These 2-Line ...Continue Reading

[list_settings.list_name] Current TLEs

February 6th 2014 PDT

HST 1 20580U 90037B 14036.49556154 .00004617 00000-0 30878-3 0 4315 2 20580 028.4693 182.3835 0003060 327.3201 084.8535 15.04614455104852 ISS (ZARYA) 1 25544U 98067A 14037.46258483 .00010102 00000-0 18428-3 0 6284 2 25544 051.6493 027.6006 0004211 109.9964 354.8425 15.50069824871048 CXO 1 25867U 99040B 14038.30676752 .00000058 00000-0 00000+0 0 9848 2 25867 076.5418 326.6701 8288130 275.6070 000.4324 00.37801563 11427 ____________________________________________________________________ These 2-Line ...Continue Reading

[list_settings.list_name] Current TLEs

February 5th 2014 PDT

HST 1 20580U 90037B 14034.84934832 .00005195 00000-0 34904-3 0 4300 2 20580 028.4693 193.1920 0002987 309.5642 168.1636 15.04599473104619 ISS (ZARYA) 1 25544U 98067A 14036.44164844 .00009411 00000-0 17239-3 0 6211 2 25544 051.6498 032.6590 0004221 106.7970 057.2314 15.50045538870888 CXO 1 25867U 99040B 14038.30887400 .00000058 00000-0 00000+0 0 9831 2 25867 076.5422 326.6714 8287972 275.6084 000.7192 00.37801782 11423 ____________________________________________________________________ These 2-Line ...Continue Reading

[list_settings.list_name] Current TLEs

February 4th 2014 PDT

HST 1 20580U 90037B 14034.84934832 .00005195 00000-0 34904-3 0 4300 2 20580 028.4693 193.1920 0002987 309.5642 168.1636 15.04599473104619 ISS (ZARYA) 1 25544U 98067A 14035.27231253 .00009440 00000-0 17303-3 0 6135 2 25544 051.6487 038.4511 0004137 103.7747 010.9113 15.50022515870702 CXO 1 25867U 99040B 14035.66468712 -.00000070 00000-0 00000+0 0 9822 2 25867 076.5406 326.7839 8291411 275.6482 000.7237 00.37804096 11419 ____________________________________________________________________ These 2-Line ...Continue Reading

[list_settings.list_name] Current TLEs

February 3rd 2014 PDT

HST 1 20580U 90037B 14033.51137826 .00003282 00000-0 21619-3 0 4293 2 20580 028.4694 201.9762 0002924 294.4423 121.7873 15.04595031104403 ISS (ZARYA) 1 25544U 98067A 14034.37368881 .00008999 00000-0 16545-3 0 6059 2 25544 051.6484 042.9000 0004200 098.3769 038.6277 15.50002797870568 CXO 1 25867U 99040B 14035.66468712 -.00000070 00000-0 00000+0 0 9822 2 25867 076.5406 326.7839 8291411 275.6482 000.7237 00.37804096 11419 ____________________________________________________________________ These 2-Line ...Continue Reading

[list_settings.list_name] Current TLEs

February 2nd 2014 PDT

HST 1 20580U 90037B 14031.93215238 .00002965 00000-0 19415-3 0 4288 2 20580 028.4692 212.3446 0002860 275.7127 209.7091 15.04587189104176 ISS (ZARYA) 1 25544U 98067A 14033.27202506 .00008520 00000-0 15719-3 0 5981 2 25544 051.6477 048.3586 0004314 094.2190 011.4693 15.49980497870390 CXO 1 25867U 99040B 14035.66468712 -.00000070 00000-0 00000+0 0 9822 2 25867 076.5406 326.7839 8291411 275.6482 000.7237 00.37804096 11419 ____________________________________________________________________ These 2-Line ...Continue Reading

[list_settings.list_name] Current TLEs

February 1st 2014 PDT

HST 1 20580U 90037B 14031.93215238 .00002965 00000-0 19415-3 0 4288 2 20580 028.4692 212.3446 0002860 275.7127 209.7091 15.04587189104176 ISS (ZARYA) 1 25544U 98067A 14032.23854008 .00007908 00000-0 14660-3 0 5912 2 25544 051.6486 053.4810 0003903 090.9093 004.2249 15.49959532870231 CXO 1 25867U 99040B 14033.01926120 .00000025 00000-0 00000+0 0 9819 2 25867 076.5413 326.8863 8297607 275.6923 000.5953 00.37804975 11406 ____________________________________________________________________ These 2-Line ...Continue Reading

[list_settings.list_name] Current TLEs

January 31st 2014 PDT

HST 1 20580U 90037B 14030.80418478 .00002794 00000-0 18228-3 0 4274 2 20580 028.4691 219.7497 0002847 261.7997 221.9149 15.04583082104007 ISS (ZARYA) 1 25544U 98067A 14031.42097222 -.00009544 00000-0 -15979-3 0 5856 2 25544 051.6483 057.5313 0004055 087.4758 122.7493 15.49931792870100 CXO 1 25867U 99040B 14033.01926120 .00000025 00000-0 00000+0 0 9819 2 25867 076.5413 326.8863 8297607 275.6923 000.5953 00.37804975 11406 ____________________________________________________________________ These 2-Line ...Continue Reading

[list_settings.list_name] Current TLEs

January 30th 2014 PDT

HST 1 20580U 90037B 14029.01455657 .00002733 00000-0 17810-3 0 4263 2 20580 028.4689 231.4939 0002847 243.5722 247.5195 15.04575293103739 ISS (ZARYA) 1 25544U 98067A 14030.44122101 -.00000938 00000-0 -84642-5 0 5787 2 25544 051.6492 062.3855 0003832 091.1306 048.7017 15.49927570869957 CXO 1 25867U 99040B 14033.01986359 .00000025 00000-0 00000+0 0 9808 2 25867 076.5414 326.8870 8297446 275.6949 000.6777 00.37802137 11407 ____________________________________________________________________ These 2-Line ...Continue Reading

[list_settings.list_name] Current TLEs

January 29th 2014 PDT

HST 1 20580U 90037B 14029.01455657 .00002733 00000-0 17810-3 0 4263 2 20580 028.4689 231.4939 0002847 243.5722 247.5195 15.04575293103739 ISS (ZARYA) 1 25544U 98067A 14029.47665556 -.00000937 00000-0 -84642-5 0 5716 2 25544 051.6476 067.1563 0003688 084.3307 069.9563 15.49908135869803 CXO 1 25867U 99040B 14030.37354444 .00000192 00000-0 00000+0 0 9791 2 25867 076.5323 327.0191 8305172 275.7091 000.5175 00.37802954 11396 ____________________________________________________________________ These 2-Line ...Continue Reading
  • This mailing list is a public mailing list - anyone may join or leave, at any time.
  • This mailing list is announce-only.

International Space Station (ISS) / Hubble Space Telescope (HST) / Chandra X-Ray Observatory Orbital Data via EMAIL

Privacy Policy:

Private list